AFR68RY EDDH-LFPG

Flight info

Callsign AFR68RY
Flight time 1h 17m
Altitude 36000
Route HABFU1C HABFU Y348 DOMEG DCT IDOSA UN857 TOLVU/N0438F350 DCT RAPOR DCT VEDUS
Aircraft A320/M-SDE3FGHIRWY/LB1

Departure

Time 2026-05-08 20:23
Airport Hamburg Helmut Schmidt Airport (EDDH)

Arrival

Time 2026-05-08 21:41
Airport Charles de Gaulle International Airport (LFPG)
Time Latitude Longitude Altitude Speed Heading
2026-05-08 19:38 53.63278 10.00375 67 ft 0 kts 90°
2026-05-08 19:55 53.63278 10.00357 67 ft 4 kts 92°
2026-05-08 19:55 53.63281 10.00312 67 ft 4 kts 101°
2026-05-08 19:55 53.63288 10.00269 67 ft 4 kts 115°
2026-05-08 19:56 53.63303 10.00234 67 ft 4 kts 153°
2026-05-08 19:56 53.63316 10.00227 67 ft 1 kts 175°
2026-05-08 19:56 53.63317 10.00227 67 ft 0 kts 175°
2026-05-08 19:59 53.63313 10.00228 67 ft 2 kts 175°
2026-05-08 19:59 53.63285 10.00232 67 ft 5 kts 175°
2026-05-08 19:59 53.63251 10.00236 67 ft 6 kts 175°
2026-05-08 20:00 53.63197 10.00244 67 ft 10 kts 175°
2026-05-08 20:00 53.63125 10.00254 67 ft 10 kts 175°
2026-05-08 20:00 53.63059 10.00254 67 ft 7 kts 200°
2026-05-08 20:00 53.63024 10.00212 67 ft 5 kts 216°
2026-05-08 20:01 53.62993 10.00176 67 ft 4 kts 217°
2026-05-08 20:01 53.62990 10.00172 67 ft 0 kts 218°
2026-05-08 20:02 53.62989 10.00171 67 ft 1 kts 218°
2026-05-08 20:03 53.62961 10.00135 67 ft 11 kts 213°
2026-05-08 20:03 53.62933 10.00100 67 ft 0 kts 220°
2026-05-08 20:03 53.62933 10.00099 67 ft 0 kts 220°
2026-05-08 20:03 53.62931 10.00096 67 ft 1 kts 220°
2026-05-08 20:06 53.62930 10.00095 67 ft 0 kts 220°
2026-05-08 20:07 53.62929 10.00093 67 ft 0 kts 220°
2026-05-08 20:07 53.62928 10.00092 67 ft 0 kts 220°
2026-05-08 20:08 53.62922 10.00084 67 ft 2 kts 220°
2026-05-08 20:08 53.62904 10.00060 67 ft 4 kts 218°
2026-05-08 20:08 53.62881 10.00030 67 ft 4 kts 216°
2026-05-08 20:08 53.62856 9.99999 67 ft 4 kts 216°
2026-05-08 20:09 53.62830 9.99968 67 ft 4 kts 216°
2026-05-08 20:09 53.62828 9.99965 67 ft 0 kts 216°
2026-05-08 20:11 53.62823 9.99959 67 ft 4 kts 216°
2026-05-08 20:11 53.62768 9.99893 67 ft 12 kts 213°
2026-05-08 20:12 53.62693 9.99818 67 ft 13 kts 210°
2026-05-08 20:12 53.62645 9.99742 67 ft 5 kts 253°
2026-05-08 20:12 53.62632 9.99685 67 ft 5 kts 252°
2026-05-08 20:12 53.62624 9.99622 67 ft 6 kts 257°
2026-05-08 20:13 53.62614 9.99542 67 ft 9 kts 259°
2026-05-08 20:13 53.62604 9.99455 67 ft 13 kts 259°
2026-05-08 20:13 53.62582 9.99246 67 ft 14 kts 259°
2026-05-08 20:13 53.62564 9.99082 67 ft 14 kts 259°
2026-05-08 20:14 53.62545 9.98913 67 ft 15 kts 259°
2026-05-08 20:14 53.62526 9.98738 67 ft 15 kts 259°
2026-05-08 20:14 53.62512 9.98617 67 ft 16 kts 259°
2026-05-08 20:14 53.62492 9.98435 67 ft 16 kts 259°
2026-05-08 20:15 53.62466 9.98207 67 ft 12 kts 259°
2026-05-08 20:15 53.62455 9.98121 67 ft 11 kts 250°
2026-05-08 20:15 53.62409 9.98025 67 ft 11 kts 221°
2026-05-08 20:15 53.62354 9.97937 67 ft 11 kts 230°
2026-05-08 20:16 53.62307 9.97833 67 ft 11 kts 231°
2026-05-08 20:16 53.62256 9.97729 67 ft 12 kts 230°
2026-05-08 20:16 53.62208 9.97632 67 ft 5 kts 231°
2026-05-08 20:16 53.62205 9.97627 67 ft 0 kts 232°
2026-05-08 20:17 53.62204 9.97623 67 ft 1 kts 232°
2026-05-08 20:17 53.62187 9.97588 67 ft 7 kts 237°
2026-05-08 20:17 53.62175 9.97517 67 ft 0 kts 267°
2026-05-08 20:19 53.62175 9.97515 67 ft 0 kts 267°
2026-05-08 20:19 53.62175 9.97486 67 ft 4 kts 272°
2026-05-08 20:19 53.62184 9.97438 67 ft 3 kts 297°
2026-05-08 20:19 53.62185 9.97436 67 ft 0 kts 298°
2026-05-08 20:21 53.62188 9.97424 67 ft 4 kts 300°
2026-05-08 20:21 53.62222 9.97372 67 ft 7 kts 335°
2026-05-08 20:21 53.62271 9.97347 67 ft 8 kts 349°
2026-05-08 20:22 53.62318 9.97374 67 ft 8 kts 42°
2026-05-08 20:22 53.62334 9.97402 67 ft 0 kts 49°
2026-05-08 20:22 53.62496 9.97724 68 ft 84 kts 48°
2026-05-08 20:23 53.63047 9.98838 68 ft 162 kts 50°
2026-05-08 20:23 53.63818 10.00409 725 ft 172 kts 51°
2026-05-08 20:23 53.64590 10.01933 1772 ft 170 kts 50°
2026-05-08 20:23 53.65364 10.03440 2639 ft 172 kts 53°
2026-05-08 20:24 53.66156 10.05017 3322 ft 181 kts 54°
2026-05-08 20:24 53.66962 10.06729 3939 ft 194 kts 56°
2026-05-08 20:24 53.67822 10.08587 4631 ft 207 kts 55°
2026-05-08 20:24 53.68894 10.10318 5365 ft 222 kts 32°
2026-05-08 20:25 53.70392 10.10966 6176 ft 231 kts 359°
2026-05-08 20:25 53.71933 10.10179 7021 ft 236 kts 327°
2026-05-08 20:25 53.73045 10.08128 7827 ft 242 kts 296°
2026-05-08 20:25 53.73513 10.05355 8536 ft 255 kts 280°
2026-05-08 20:26 53.73914 10.02324 9150 ft 273 kts 284°
2026-05-08 20:26 53.74539 9.99225 9920 ft 284 kts 294°
2026-05-08 20:26 53.75399 9.96100 10383 ft 308 kts 289°
2026-05-08 20:26 53.75612 9.92370 10001 ft 329 kts 259°
2026-05-08 20:27 53.74779 9.88824 10150 ft 328 kts 236°
2026-05-08 20:27 53.73362 9.85761 10201 ft 333 kts 229°
2026-05-08 20:27 53.71876 9.82739 10213 ft 334 kts 232°
2026-05-08 20:27 53.70643 9.79424 10378 ft 334 kts 242°
2026-05-08 20:28 53.69678 9.75900 10934 ft 337 kts 247°
2026-05-08 20:28 53.68799 9.72207 11838 ft 340 kts 249°
2026-05-08 20:28 53.67871 9.68529 12742 ft 342 kts 241°
2026-05-08 20:28 53.66400 9.65384 13598 ft 344 kts 221°
2026-05-08 20:29 53.64448 9.63019 14462 ft 347 kts 213°
2026-05-08 20:29 53.62380 9.60871 15240 ft 351 kts 212°
2026-05-08 20:29 53.60271 9.58720 15957 ft 356 kts 213°
2026-05-08 20:29 53.58159 9.56484 16679 ft 360 kts 214°
2026-05-08 20:30 53.56056 9.54153 17394 ft 363 kts 216°
2026-05-08 20:30 53.53948 9.51764 18095 ft 367 kts 216°
2026-05-08 20:30 53.51815 9.49355 18768 ft 370 kts 216°
2026-05-08 20:30 53.49659 9.46952 19430 ft 373 kts 216°
2026-05-08 20:31 53.47505 9.44578 20061 ft 377 kts 215°
2026-05-08 20:31 53.45297 9.42150 20682 ft 380 kts 216°
2026-05-08 20:31 53.43079 9.39707 21265 ft 383 kts 216°
2026-05-08 20:31 53.40838 9.37236 21832 ft 386 kts 216°
2026-05-08 20:32 53.38582 9.34750 22387 ft 390 kts 216°
2026-05-08 20:32 53.36308 9.32252 22927 ft 392 kts 216°
2026-05-08 20:32 53.34016 9.29737 23447 ft 396 kts 216°
2026-05-08 20:32 53.31703 9.27201 23940 ft 399 kts 216°
2026-05-08 20:33 53.29369 9.24645 24201 ft 401 kts 216°
2026-05-08 20:33 53.27041 9.22102 24211 ft 400 kts 216°
2026-05-08 20:33 53.24710 9.19557 24327 ft 401 kts 215°
2026-05-08 20:33 53.22360 9.16997 24767 ft 404 kts 215°
2026-05-08 20:34 53.20001 9.14427 25258 ft 406 kts 216°
2026-05-08 20:34 53.17622 9.11837 25732 ft 408 kts 216°
2026-05-08 20:34 53.12830 9.06640 26593 ft 414 kts 215°
2026-05-08 20:35 53.10408 9.04019 27011 ft 416 kts 215°
2026-05-08 20:35 53.07971 9.01380 27423 ft 419 kts 215°
2026-05-08 20:35 53.05554 8.98765 27820 ft 421 kts 215°
2026-05-08 20:35 53.03094 8.96110 28203 ft 423 kts 215°
2026-05-08 20:36 53.00610 8.93438 28576 ft 426 kts 215°
2026-05-08 20:36 52.98116 8.90757 28934 ft 428 kts 215°
2026-05-08 20:36 52.95606 8.88060 29294 ft 430 kts 215°
2026-05-08 20:36 52.93088 8.85358 29641 ft 432 kts 215°
2026-05-08 20:37 52.90550 8.82641 29976 ft 435 kts 215°
2026-05-08 20:37 52.88004 8.79922 30308 ft 436 kts 215°
2026-05-08 20:37 52.85444 8.77186 30643 ft 438 kts 215°
2026-05-08 20:37 52.82884 8.74453 31045 ft 438 kts 215°
2026-05-08 20:38 52.80362 8.71766 31464 ft 437 kts 215°
2026-05-08 20:38 52.77811 8.69051 31879 ft 436 kts 215°
2026-05-08 20:38 52.75260 8.66340 32289 ft 435 kts 215°
2026-05-08 20:38 52.72721 8.63651 32711 ft 434 kts 214°
2026-05-08 20:39 52.70182 8.60969 33091 ft 433 kts 214°
2026-05-08 20:39 52.67648 8.58293 33480 ft 432 kts 214°
2026-05-08 20:39 52.65117 8.55618 33850 ft 432 kts 214°
2026-05-08 20:39 52.62590 8.52948 34218 ft 431 kts 214°
2026-05-08 20:40 52.60060 8.50281 34539 ft 431 kts 214°
2026-05-08 20:40 52.57538 8.47626 34853 ft 431 kts 214°
2026-05-08 20:40 52.55010 8.44970 35156 ft 431 kts 214°
2026-05-08 20:40 52.52482 8.42319 35438 ft 431 kts 214°
2026-05-08 20:41 52.49952 8.39670 35722 ft 431 kts 214°
2026-05-08 20:41 52.47419 8.37023 36003 ft 431 kts 214°
2026-05-08 20:41 52.44915 8.34410 36214 ft 433 kts 214°
2026-05-08 20:42 52.39832 8.29112 36212 ft 432 kts 214°
2026-05-08 20:42 52.34758 8.23832 36211 ft 432 kts 214°
2026-05-08 20:43 52.29678 8.18572 36208 ft 432 kts 214°
2026-05-08 20:43 52.24667 8.13389 36207 ft 432 kts 214°
2026-05-08 20:44 52.19582 8.08142 36186 ft 432 kts 214°
2026-05-08 20:44 52.14497 8.02916 36170 ft 432 kts 214°
2026-05-08 20:45 52.09412 7.97703 36164 ft 432 kts 214°
2026-05-08 20:45 52.04322 7.92499 36160 ft 432 kts 214°
2026-05-08 20:46 51.99226 7.87303 36162 ft 432 kts 214°
2026-05-08 20:46 51.94166 7.82155 36165 ft 432 kts 214°
2026-05-08 20:47 51.89068 7.76985 36172 ft 432 kts 214°
2026-05-08 20:47 51.83957 7.71817 36179 ft 432 kts 214°
2026-05-08 20:48 51.78852 7.66666 36176 ft 433 kts 214°
2026-05-08 20:48 51.73739 7.61525 36179 ft 433 kts 214°
2026-05-08 20:49 51.68604 7.56553 36179 ft 433 kts 212°
2026-05-08 20:49 51.63348 7.51761 36168 ft 434 kts 211°
2026-05-08 20:50 51.58092 7.46992 36172 ft 434 kts 211°
2026-05-08 20:50 51.52839 7.42208 36161 ft 434 kts 211°
2026-05-08 20:51 51.47574 7.37429 36168 ft 434 kts 211°
2026-05-08 20:51 51.42306 7.32668 36159 ft 434 kts 211°
2026-05-08 20:52 51.37035 7.27915 36164 ft 434 kts 211°
2026-05-08 20:52 51.31795 7.23204 36151 ft 435 kts 211°
2026-05-08 20:53 51.26519 7.18466 36151 ft 435 kts 211°
2026-05-08 20:53 51.21230 7.13737 36151 ft 435 kts 211°
2026-05-08 20:54 51.16839 7.09818 36149 ft 435 kts 211°
2026-05-08 20:54 51.10657 7.04319 36120 ft 436 kts 211°
2026-05-08 20:55 51.05402 6.99658 36162 ft 435 kts 211°
2026-05-08 20:55 51.00110 6.94964 36148 ft 435 kts 211°
2026-05-08 20:56 50.94805 6.90279 36150 ft 435 kts 211°
2026-05-08 20:56 50.89537 6.85644 36149 ft 435 kts 211°
2026-05-08 20:57 50.84237 6.80989 36150 ft 435 kts 211°
2026-05-08 20:57 50.78934 6.76338 36156 ft 435 kts 211°
2026-05-08 20:58 50.73624 6.71705 36162 ft 435 kts 211°
2026-05-08 20:58 50.68312 6.67080 36167 ft 435 kts 211°
2026-05-08 20:59 50.63035 6.62490 36173 ft 436 kts 211°
2026-05-08 20:59 50.57725 6.57882 36179 ft 436 kts 211°
2026-05-08 21:00 50.52410 6.53292 36178 ft 436 kts 211°
2026-05-08 21:00 50.47091 6.48705 36176 ft 436 kts 211°
2026-05-08 21:01 50.42668 6.44898 36173 ft 436 kts 211°
2026-05-08 21:01 50.37350 6.40331 36153 ft 436 kts 211°
2026-05-08 21:02 50.31163 6.35035 36105 ft 436 kts 210°
2026-05-08 21:02 50.26724 6.31245 36075 ft 436 kts 210°
2026-05-08 21:03 50.21392 6.26704 36077 ft 436 kts 210°
2026-05-08 21:03 50.16061 6.22177 36077 ft 436 kts 210°
2026-05-08 21:04 50.10718 6.17649 36089 ft 436 kts 210°
2026-05-08 21:04 50.05380 6.13138 36102 ft 436 kts 210°
2026-05-08 21:05 50.00076 6.08665 36116 ft 436 kts 210°
2026-05-08 21:05 49.94722 6.04164 36131 ft 436 kts 210°
2026-05-08 21:06 49.89384 5.99686 36143 ft 436 kts 210°
2026-05-08 21:06 49.84040 5.95213 36142 ft 437 kts 210°
2026-05-08 21:07 49.78688 5.90734 36157 ft 436 kts 211°
2026-05-08 21:07 49.76192 5.88107 36142 ft 433 kts 222°
2026-05-08 21:07 49.74112 5.84773 36120 ft 430 kts 234°
2026-05-08 21:07 49.72607 5.80799 36103 ft 427 kts 248°
2026-05-08 21:08 49.71585 5.76494 36098 ft 427 kts 252°
2026-05-08 21:08 49.69738 5.67773 36095 ft 427 kts 252°
2026-05-08 21:09 49.67738 5.59150 36152 ft 426 kts 251°
2026-05-08 21:09 49.65687 5.50638 36141 ft 426 kts 251°
2026-05-08 21:10 49.63669 5.42012 36004 ft 422 kts 252°
2026-05-08 21:10 49.62688 5.37809 35738 ft 422 kts 252°
2026-05-08 21:10 49.61750 5.33528 35467 ft 421 kts 253°
2026-05-08 21:10 49.60832 5.29239 35188 ft 421 kts 254°
2026-05-08 21:11 49.59920 5.24954 34714 ft 420 kts 255°
2026-05-08 21:11 49.59247 5.20612 34119 ft 415 kts 264°
2026-05-08 21:11 49.59088 5.16199 33553 ft 410 kts 271°
2026-05-08 21:11 49.59131 5.11824 32985 ft 407 kts 274°
2026-05-08 21:12 49.59229 5.07469 32394 ft 405 kts 274°
2026-05-08 21:12 49.59315 5.03134 31781 ft 403 kts 274°
2026-05-08 21:12 49.59367 4.98820 31148 ft 402 kts 273°
2026-05-08 21:12 49.59388 4.94554 30531 ft 401 kts 272°
2026-05-08 21:13 49.59398 4.90254 29899 ft 400 kts 273°
2026-05-08 21:13 49.59416 4.85978 29234 ft 398 kts 273°
2026-05-08 21:13 49.59445 4.81710 28605 ft 401 kts 273°
2026-05-08 21:13 49.59480 4.77326 28261 ft 414 kts 273°
2026-05-08 21:14 49.59513 4.72894 28143 ft 419 kts 272°
2026-05-08 21:14 49.59533 4.68412 28112 ft 408 kts 272°
2026-05-08 21:14 49.59548 4.63986 28123 ft 417 kts 272°
2026-05-08 21:15 49.59586 4.54949 28114 ft 426 kts 272°
2026-05-08 21:15 49.59359 4.45742 28053 ft 437 kts 262°
2026-05-08 21:15 49.58618 4.41192 27826 ft 438 kts 256°
2026-05-08 21:16 49.57719 4.36698 27394 ft 437 kts 255°
2026-05-08 21:16 49.56834 4.32253 26749 ft 431 kts 256°
2026-05-08 21:16 49.56038 4.27834 26117 ft 426 kts 257°
2026-05-08 21:16 49.55324 4.23440 25515 ft 420 kts 258°
2026-05-08 21:17 49.54645 4.19094 24901 ft 415 kts 257°
2026-05-08 21:17 49.53963 4.14854 24281 ft 411 kts 257°
2026-05-08 21:17 49.53250 4.10609 23666 ft 408 kts 256°
2026-05-08 21:17 49.52522 4.06413 23071 ft 404 kts 256°
2026-05-08 21:18 49.51799 4.02246 22492 ft 400 kts 256°
2026-05-08 21:18 49.51093 3.98121 21915 ft 397 kts 256°
2026-05-08 21:18 49.50400 3.94025 21359 ft 394 kts 256°
2026-05-08 21:18 49.49713 3.89971 20824 ft 390 kts 256°
2026-05-08 21:19 49.49027 3.85946 20333 ft 390 kts 255°
2026-05-08 21:19 49.48331 3.81897 20117 ft 392 kts 255°
2026-05-08 21:19 49.47630 3.77841 20100 ft 392 kts 255°
2026-05-08 21:19 49.46928 3.73785 20099 ft 392 kts 255°
2026-05-08 21:20 49.46226 3.69732 20098 ft 392 kts 255°
2026-05-08 21:20 49.45525 3.65678 20097 ft 392 kts 255°
2026-05-08 21:20 49.44823 3.61624 20002 ft 388 kts 255°
2026-05-08 21:20 49.44141 3.57699 19552 ft 381 kts 255°
2026-05-08 21:21 49.43456 3.53770 18746 ft 382 kts 255°
2026-05-08 21:21 49.42761 3.49792 17726 ft 388 kts 255°
2026-05-08 21:21 49.42044 3.45775 16696 ft 393 kts 253°
2026-05-08 21:21 49.41108 3.41837 15876 ft 392 kts 248°
2026-05-08 21:22 49.40090 3.37990 15367 ft 383 kts 247°
2026-05-08 21:22 49.39070 3.34288 15131 ft 370 kts 246°
2026-05-08 21:22 49.38078 3.30692 15103 ft 362 kts 247°
2026-05-08 21:22 49.37110 3.27128 15103 ft 362 kts 247°
2026-05-08 21:23 49.36160 3.23580 15101 ft 362 kts 247°
2026-05-08 21:23 49.35207 3.20005 15100 ft 362 kts 247°
2026-05-08 21:23 49.34249 3.16434 15099 ft 362 kts 247°
2026-05-08 21:23 49.33282 3.12849 15098 ft 362 kts 247°
2026-05-08 21:24 49.32316 3.09282 15098 ft 362 kts 247°
2026-05-08 21:24 49.31348 3.05710 15097 ft 362 kts 247°
2026-05-08 21:24 49.30382 3.02151 15096 ft 362 kts 247°
2026-05-08 21:24 49.29412 2.98579 15095 ft 361 kts 247°
2026-05-08 21:25 49.28483 2.95161 15087 ft 343 kts 247°
2026-05-08 21:25 49.27587 2.91872 15085 ft 325 kts 247°
2026-05-08 21:25 49.26723 2.88707 15092 ft 324 kts 247°
2026-05-08 21:25 49.25848 2.85504 15092 ft 326 kts 247°
2026-05-08 21:26 49.24977 2.82321 15055 ft 320 kts 247°
2026-05-08 21:26 49.24132 2.79234 14942 ft 308 kts 247°
2026-05-08 21:26 49.23312 2.76244 14688 ft 302 kts 247°
2026-05-08 21:26 49.22496 2.73275 14230 ft 302 kts 247°
2026-05-08 21:27 49.21682 2.70315 13808 ft 301 kts 247°
2026-05-08 21:27 49.20871 2.67368 13400 ft 300 kts 246°
2026-05-08 21:27 49.20064 2.64443 12993 ft 298 kts 246°
2026-05-08 21:27 49.19258 2.61526 12582 ft 296 kts 246°
2026-05-08 21:28 49.18465 2.58626 12160 ft 295 kts 248°
2026-05-08 21:28 49.17996 2.55593 11725 ft 294 kts 263°
2026-05-08 21:28 49.17884 2.52469 11295 ft 294 kts 268°
2026-05-08 21:28 49.17868 2.49374 11093 ft 289 kts 269°
2026-05-08 21:29 49.17862 2.46293 11089 ft 291 kts 269°
2026-05-08 21:29 49.17824 2.43203 11089 ft 290 kts 268°
2026-05-08 21:29 49.17585 2.40208 10902 ft 286 kts 256°
2026-05-08 21:29 49.17063 2.37272 10402 ft 288 kts 252°
2026-05-08 21:30 49.16459 2.34346 9956 ft 288 kts 251°
2026-05-08 21:30 49.15837 2.31453 9528 ft 286 kts 251°
2026-05-08 21:30 49.15211 2.28567 9081 ft 285 kts 251°
2026-05-08 21:30 49.14595 2.25685 8635 ft 284 kts 251°
2026-05-08 21:31 49.13982 2.22867 8382 ft 273 kts 251°
2026-05-08 21:31 49.13396 2.20191 8222 ft 258 kts 251°
2026-05-08 21:31 49.12839 2.17636 7954 ft 251 kts 251°
2026-05-08 21:31 49.12289 2.15123 7607 ft 248 kts 251°
2026-05-08 21:32 49.11740 2.12620 7239 ft 247 kts 251°
2026-05-08 21:32 49.11196 2.10144 6860 ft 246 kts 251°
2026-05-08 21:32 49.10476 2.07787 6454 ft 245 kts 232°
2026-05-08 21:32 49.09208 2.06112 6063 ft 241 kts 206°
2026-05-08 21:33 49.07635 2.05468 5628 ft 237 kts 179°
2026-05-08 21:33 49.06080 2.05980 5339 ft 225 kts 152°
2026-05-08 21:33 49.04880 2.07441 4979 ft 220 kts 130°
2026-05-08 21:33 49.03907 2.09225 4601 ft 218 kts 127°
2026-05-08 21:34 49.02992 2.11010 4415 ft 207 kts 126°
2026-05-08 21:34 49.02132 2.12697 4247 ft 197 kts 126°
2026-05-08 21:34 49.01292 2.14335 3999 ft 196 kts 125°
2026-05-08 21:34 49.00683 2.16168 3978 ft 194 kts 99°
2026-05-08 21:35 49.00621 2.18216 4003 ft 194 kts 86°
2026-05-08 21:35 49.00721 2.20260 4009 ft 194 kts 84°
2026-05-08 21:35 49.00849 2.22305 4003 ft 193 kts 84°
2026-05-08 21:35 49.00963 2.24340 3922 ft 189 kts 85°
2026-05-08 21:36 49.01062 2.26280 3712 ft 183 kts 84°
2026-05-08 21:36 49.01164 2.28179 3488 ft 177 kts 84°
2026-05-08 21:36 49.01264 2.30029 3264 ft 173 kts 84°
2026-05-08 21:36 49.01358 2.31800 3057 ft 162 kts 84°
2026-05-08 21:37 49.01448 2.33468 2848 ft 152 kts 84°
2026-05-08 21:37 49.01530 2.35007 2647 ft 140 kts 84°
2026-05-08 21:37 49.01609 2.36470 2458 ft 138 kts 84°
2026-05-08 21:37 49.01686 2.37922 2277 ft 137 kts 85°
2026-05-08 21:38 49.01754 2.39376 2096 ft 137 kts 85°
2026-05-08 21:38 49.01832 2.40819 1905 ft 137 kts 84°
2026-05-08 21:38 49.01912 2.42258 1717 ft 137 kts 85°
2026-05-08 21:38 49.01994 2.43708 1546 ft 138 kts 85°
2026-05-08 21:39 49.02066 2.45174 1375 ft 139 kts 85°
2026-05-08 21:39 49.02137 2.46619 1189 ft 135 kts 85°
2026-05-08 21:39 49.02222 2.48032 1019 ft 134 kts 84°
2026-05-08 21:39 49.02301 2.49431 837 ft 134 kts 84°
2026-05-08 21:40 49.02384 2.50837 644 ft 134 kts 85°
2026-05-08 21:40 49.02449 2.52241 495 ft 132 kts 85°
2026-05-08 21:40 49.02528 2.53642 425 ft 133 kts 83°
2026-05-08 21:41 49.02652 2.55897 407 ft 25 kts 81°
2026-05-08 21:41 49.02651 2.56104 407 ft 14 kts 114°
2026-05-08 21:41 49.02591 2.56149 407 ft 8 kts 175°
2026-05-08 21:41 49.02533 2.56146 407 ft 8 kts 187°
2026-05-08 21:42 49.02495 2.56099 407 ft 7 kts 242°
2026-05-08 21:42 49.02485 2.56029 407 ft 7 kts 263°
2026-05-08 21:42 49.02465 2.55967 407 ft 7 kts 217°
2026-05-08 21:42 49.02423 2.55948 407 ft 6 kts 184°
2026-05-08 21:43 49.02418 2.55948 407 ft 0 kts 179°
2026-05-08 21:43 49.02417 2.55948 407 ft 0 kts 179°
2026-05-08 21:44 49.02414 2.55948 407 ft 1 kts 179°
2026-05-08 21:44 49.02403 2.55948 407 ft 4 kts 178°
2026-05-08 21:44 49.02328 2.55954 407 ft 15 kts 175°
2026-05-08 21:45 49.02240 2.55967 407 ft 11 kts 174°
2026-05-08 21:45 49.02177 2.55975 407 ft 9 kts 175°
2026-05-08 21:45 49.02119 2.56001 407 ft 9 kts 142°
2026-05-08 21:45 49.02093 2.56085 407 ft 9 kts 85°
2026-05-08 21:46 49.02095 2.56187 407 ft 10 kts 94°
2026-05-08 21:46 49.02079 2.56253 407 ft 10 kts 122°
2026-05-08 21:46 49.02035 2.56346 407 ft 11 kts 126°
2026-05-08 21:46 49.02022 2.56460 407 ft 12 kts 86°
2026-05-08 21:47 49.02029 2.56588 407 ft 13 kts 85°
2026-05-08 21:47 49.02037 2.56726 407 ft 14 kts 85°
2026-05-08 21:47 49.02045 2.56876 407 ft 15 kts 85°
2026-05-08 21:47 49.02054 2.57039 407 ft 16 kts 86°
2026-05-08 21:48 49.02062 2.57214 407 ft 17 kts 85°
2026-05-08 21:48 49.02071 2.57402 407 ft 18 kts 85°
2026-05-08 21:48 49.02082 2.57601 407 ft 20 kts 85°
2026-05-08 21:48 49.02073 2.57814 406 ft 19 kts 107°
2026-05-08 21:49 49.02019 2.57969 407 ft 16 kts 130°
2026-05-08 21:49 49.01932 2.58074 407 ft 16 kts 151°
2026-05-08 21:49 49.01834 2.58111 407 ft 14 kts 175°
2026-05-08 21:49 49.01735 2.58123 407 ft 15 kts 176°
2026-05-08 21:50 49.01631 2.58136 407 ft 15 kts 175°
2026-05-08 21:50 49.01521 2.58150 407 ft 16 kts 177°
2026-05-08 21:50 49.01406 2.58163 407 ft 17 kts 175°
2026-05-08 21:50 49.01287 2.58178 407 ft 16 kts 176°
2026-05-08 21:51 49.01210 2.58187 407 ft 11 kts 175°
2026-05-08 21:51 49.01175 2.58192 407 ft 0 kts 173°
2026-05-08 21:52 49.01142 2.58197 407 ft 8 kts 174°
2026-05-08 21:52 49.01065 2.58206 407 ft 13 kts 174°
2026-05-08 21:52 49.00981 2.58218 407 ft 10 kts 178°
2026-05-08 21:52 49.00922 2.58169 407 ft 10 kts 238°
2026-05-08 21:53 49.00869 2.58103 407 ft 10 kts 187°
2026-05-08 21:53 49.00796 2.58106 407 ft 11 kts 177°
2026-05-08 21:53 49.00738 2.58113 407 ft 8 kts 174°
2026-05-08 21:53 49.00684 2.58119 407 ft 4 kts 176°
2026-05-08 21:54 49.00663 2.58099 407 ft 4 kts 243°
2026-05-08 21:54 49.00655 2.58057 407 ft 4 kts 259°
2026-05-08 21:54 49.00653 2.58021 407 ft 2 kts 266°
2026-05-08 21:54 49.00652 2.57999 407 ft 2 kts 266°
2026-05-08 21:55 49.00651 2.57992 407 ft 0 kts 266°
2026-05-08 21:55 49.00651 2.57989 407 ft 0 kts 266°
2026-05-08 21:55 49.00651 2.57988 407 ft 0 kts 266°